Flag for Russia Weather past 2 weeks in Kaliningrad, Russia

Now
46 °F

Light rain. Low clouds.


Feels Like: 39 °F
Forecast: 41 / 43 °F
Wind: 17 mph from Northwest

Location: Kaliningrad/Khrabrovo Airport

Current Time: Dec 22, 2014 at 2:20:52 PM

Latest Report: Dec 22, 2014 at 1:00 PM


Visibility: 5 mi

Pressure: 29.39 "Hg

Humidity: 87%

Dew point: 43 °F

Location of KaliningradLocation

Historic Weather in Kaliningrad — Graph

°F

Kaliningrad temperature yesterday

Maximum temperature yesterday: 41 °F (at 12:00 PM)
Minimum temperature yesterday: 36 °F (at 1:00 AM)
Average temperature yesterday: 39 °F

Past Weeks' High & Low Weather Summary

 TemperatureHumidityPressure
High50 °F (Dec 19, 6:00 AM)100% (Dec 15, 1:00 AM)30.33 "Hg (Dec 15, 1:00 AM)
Low28 °F (Dec 10, 7:30 AM)60% (Dec 10, 6:30 PM)29.24 "Hg (Dec 13, 1:30 AM)
Average38 °F83%29.78 "Hg
* Reported Dec 7 1:00 PM — Dec 22 1:00 PM, Kaliningrad, Weather by CustomWeather, © 2014

Note: Actual official high and low records may vary slightly from our data, if they occured in-between our weather recording intervals... More about our weather records

Advertising

Kaliningrad weather history for previous 24 hours

 ConditionsComfort  
Time TempWeatherWind HumidityBarometerVisibility
1:00 PM
Dec 22
46 °FLight rain. Low clouds.17 mph87%29.39 "Hg5 mi
12:00 PM46 °FLight rain. Low clouds.15 mph87%29.42 "Hg4 mi
11:00 AM45 °FLight rain. Low clouds.13 mph87%29.42 "Hg4 mi
10:00 AM43 °FLight rain. Low clouds.13 mph87%29.42 "Hg5 mi
9:30 AM41 °FLight rain. Low clouds.15 mph93%29.42 "Hg5 mi
9:00 AM41 °FLight rain. Low clouds.17 mph87%29.42 "Hg5 mi
8:00 AM39 °FLight rain. Overcast.17 mph93%29.45 "Hg4 mi
7:00 AM39 °FLight rain. Overcast.17 mph93%29.47 "Hg5 mi
6:00 AM39 °FLight rain. Overcast.17 mph87%29.50 "Hg5 mi
5:00 AM39 °FLight rain. Overcast.17 mph87%29.56 "Hg6 mi
4:00 AM39 °FLight rain. Overcast.17 mph93%29.59 "Hg5 mi
3:00 AM39 °FLight rain. Overcast.17 mph87%29.65 "Hg5 mi
1:00 AM39 °FLight rain. Overcast.15 mph87%29.71 "Hg4 mi
12:00 AM39 °FLight rain. Low clouds.10 mph87%29.74 "Hg3 mi
11:00 PM
Dec 21
39 °FSprinkles. Mostly cloudy.13 mph87%29.80 "Hg5 mi
10:00 PM39 °FSprinkles. Mostly cloudy.10 mph87%29.80 "Hg5 mi
9:30 PM39 °FSprinkles. Mostly cloudy.10 mph87%29.83 "Hg4 mi
9:00 PM39 °FSprinkles. Mostly cloudy.10 mph81%29.83 "Hg2 mi
8:00 PM39 °FMostly cloudy.8 mph81%29.83 "HgN/A
7:00 PM39 °FMostly cloudy.13 mph75%29.86 "HgN/A
6:30 PM37 °FMostly cloudy.8 mph81%29.83 "HgN/A
6:00 PM36 °FPartly sunny.6 mph81%29.86 "HgN/A
5:00 PM39 °FBroken clouds.8 mph75%29.86 "HgN/A
4:00 PM39 °FPartly sunny.10 mph75%29.86 "HgN/A
3:00 PM39 °FPartly sunny.13 mph75%29.86 "HgN/A
2:00 PM41 °FPartly sunny.15 mph70%29.83 "HgN/A
Weather by CustomWeather, © 2014

See weather overviewHow to use our weather pages